Weather in Yermakovskiy

Russia / Novosibirsk Oblast     54°07′27″N   80°18′36″E
temp.,
°C
wind,
m/s
gust,
m/s
humid.,
%
clouds,
%
prec.,
mm/h
press.,
hPa
HPBL,
m
27 february, sat
sat2701:00−26sw51095100 0.1 1037403
04:00−26sw4995100 0.1 1037361
07:00−26sw4896100 0.1 1037313
10:00−26sw4896100 0.1 1037301
13:00−25sw4795100 0.1 1038337
16:00−23sw469293 0.0 1038361
19:00−26ssw359572 0.0 103894
22:00−28ssw33970 0.0 103851
28 february, sun
sun2801:00−28s35980 0.0 103880
04:00−27sse35970 0.0 103774
07:00−27sse459610 0.0 1036101
10:00−25se598928 0.0 1034209
13:00−20se599257 0.0 1031269
16:00−16sse61089100 0.0 1028412
19:00−12se51094100 0.3 1024453
22:00−10se61392100 0.1 1020498
1 march, mon
mon101:00−8sse61395100 0.8 1016545
04:00−6sse71395100 2.0 1012647
07:00−3s71596100 4.3 1008745
10:000sw71397100 0.9 1007845
13:00+1sw71396100 1.9 1006812
16:000sw71398100 0.1 1005820
19:000wsw81393100 0.9 1005837
22:00−2sw6129298 0.1 1007515
2 march, tue
tue201:00−10wsw7139296 0.3 1010381
04:00−13wsw6129598 0.1 1013368
07:00−16wsw5109699 0.1 1016283
10:00−18wsw4797100 0.1 1018237
13:00−16wsw3694100 0.1 1019276
16:00−14sw359392 0.0 1018343
19:00−16ssw229794 0.0 101820
22:00−16se129698 0.1 101727
3 march, wed
wed301:00−15se229799 0.4 101648
04:00−15sse1197100 0.3 101420
07:00−14w1197100 0.9 101521
10:00−14w2396100 0.3 1016160
13:00−12w4692100 0.4 1018445
16:00−11w4689100 0.1 1019637
19:00−14wsw3595100 0.2 1021122
22:00−17sw3498100 0.1 102396